Regional Weather Roundup
Issued by NWS

Home | Current Version | Previous Version | Graphics & Text | Print | Product List | Glossary On
Versions: 1 2 3 4 5 6 7 8 9 10 11 12 13 14 15 16 17 18 19 20 21 22 23 24 25 26 27 28 29 30 31 32 33 34 35 36 37 38 39 40 41 42 43 44 45 46 47 48 49 50
040
ASUS43 KDMX 112003
RWRIA

WEATHER ROUNDUP FOR IOWA
NATIONAL WEATHER SERVICE DES MOINES IA
200 PM CST THU FEB 11 2016

NOTE: "FAIR" INDICATES FEW OR NO CLOUDS BELOW 12,000 FEET WITH NO
SIGNIFICANT WEATHER AND/OR OBSTRUCTIONS TO VISIBILITY.

* - THESE STATIONS ARE NOT NWS STATIONS...THUS NOT UNDER NWS
QUALITY CONTROL.  THEY ALSO DO NOT REPORT WEATHER SUCH
AS PRECIPITATION OR FOG.

IAZ001>003-012>014-020>022-031>034-043>046-112100-
   NORTHWEST IOWA

CITY           SKY/WX    TMP DP  RH WIND       PRES   REMARKS
CARROLL *      CLOUDY    16   5  62 S8        30.23F WCI   5
CHEROKEE *     CLOUDY    16   7  67 S10       30.22F HAZE    WCI   4
DENISON *      CLOUDY    18   5  57 S9        30.19F WCI   6
LE MARS *      CLOUDY    19  14  79 S14       30.20F HAZE    WCI   6
ORANGE CITY *  LGT SNOW  16  12  86 S9        30.18F WCI   4
SHELDON *      LGT SNOW  16  10  79 S14       30.18F WCI   1
SIOUX CITY     LGT SNOW  19  12  74 SE12      30.21F WCI   7
SPENCER        LGT SNOW  14   8  77 S10       30.22F VSB 1   WCI   1
STORM LAKE *   CLOUDY    14   5  67 SE9       30.21F WCI   2
$$

IAZ055>058-069>071-079>083-090>094-112100-
   SOUTHWEST IOWA

CITY           SKY/WX    TMP DP  RH WIND       PRES   REMARKS
ATLANTIC *     CLOUDY    21   9  58 SE8       30.22F WCI  12
AUDUBON *      CLOUDY    19   7  58 SE7       30.22F WCI  10
CLARINDA *     MOSUNNY   30  16  55 S6        30.25F WCI  24
COUNCIL BLFS * LGT SNOW  21  14  73 SE12      30.21F WCI   9
CRESTON *      CLOUDY    25   3  39 SE8       30.24F WCI  16
HARLAN  *      CLOUDY    19   9  63 S9        30.24F WCI   9
LAMONI         CLOUDY    26   6  42 VRB5      30.24F WCI  20
RED OAK *      CLOUDY    28  16  59 SE7       30.22F WCI  21
SHENANDOAH *   PTSUNNY   30  18  59 S9        30.23F WCI  22
$$

IAZ047>049-059>061-072>074-084-112100-
   CENTRAL IOWA

CITY           SKY/WX    TMP DP  RH WIND       PRES   REMARKS
AMES           CLOUDY    16   3  56 SE8       30.26F WCI   5
ANKENY *       CLOUDY    19   3  49 SE6       30.27F WCI  11
BOONE *        PTSUNNY   14   3  62 SE7       30.24F WCI   4
CHARITON *     CLOUDY    21   3  45 E7        30.26F WCI  13
DES MOINES     CLOUDY    20   1  43 S6        30.27F WCI  12
GRINNELL*      CLOUDY    19   7  58 CALM      30.28F
KNOXVILLE *    PTSUNNY   19   3  49 SE6       30.26F WCI  11
MARSHALLTOWN   CLOUDY    16   2  54 SE6       30.27F WCI   7
NEWTON *       CLOUDY    18   5  57 VRB3      30.28F
PELLA *        MOSUNNY   22   5  47 CALM      30.29F
$$

IAZ004>006-015-016-023>025-035-036-112100-
   NORTH CENTRAL IOWA

CITY           SKY/WX    TMP DP  RH WIND       PRES   REMARKS
ALGONA *       CLOUDY    12   5  73 S10       30.23F WCI  -1
CLARION *      MOSUNNY   12   1  62 S9        30.25F WCI   0
ESTHERVILLE    CLOUDY    12   4  70 S13       30.21F WCI  -3
FORT DODGE *   CLOUDY    16   0  48 SW7       30.25F WCI   6
MASON CITY     CLOUDY    11   3  70 S10       30.26F WCI  -3
FOREST CITY *    N/A     12   3  67 S9        30.24F WCI   0
WEBSTER CITY * PTSUNNY   14   1  57 S9        30.23F WCI   2
IOWA FALLS *     N/A     16   3  57 S8        30.27F WCI   5
$$

IAZ007>011-017>019-026>030-037>042-050>054-066-112100-
   NORTHEAST IOWA

CITY           SKY/WX    TMP DP  RH WIND       PRES   REMARKS
CEDAR RAPIDS   SUNNY     20   5  52 W5        30.29F WCI  13
CHARLES CITY * PTSUNNY   12   0  57 S9        30.28F WCI   0
CLINTON *      SUNNY     27   7  42 CALM      30.31F
DECORAH *      SUNNY     14   0  52 SW5G12    30.26F WCI   6
DUBUQUE        SUNNY     17   3  54 SW5       30.28F WCI  10
MONTICELLO *   SUNNY     19   3  49 CALM      30.30F
OELWEIN *      SUNNY     14   3  62 S6        30.29F WCI   5
WATERLOO       CLOUDY    14   2  58 S3        30.29F
$$

IAZ064-065-067-068-078-112100-
   EAST CENTRAL IOWA

CITY           SKY/WX    TMP DP  RH WIND       PRES   REMARKS
DAVENPORT      SUNNY     22   2  42 W5        30.32F WCI  16
IOWA CITY      MOSUNNY   21   3  45 S3        30.33F
MT. PLEASANT * SUNNY     26   9  48 NE5       30.31F WCI  21
MUSCATINE *    SUNNY     23   1  39 CALM      30.33F
QUAD CITIES    SUNNY     23   1  38 SW6       30.32F WCI  16
$$

IAZ062-063-075>077-085>089-095>099-112100-
   SOUTHEAST IOWA

CITY           SKY/WX    TMP DP  RH WIND       PRES   REMARKS
BURLINGTON     SUNNY     23   6  48 CALM      30.30F
FAIRFIELD *    MOSUNNY   21   5  49 E5        30.30F WCI  15
FORT MADISON * SUNNY     23   7  50 E5        30.31F WCI  17
KEOKUK *       SUNNY     23   7  50 E6        30.31F WCI  16
OSKALOOSA *      N/A     20   9  61 CALM      30.29F
OTTUMWA        MOSUNNY   21   8  57 CALM      30.29F
WASHINGTON *   MOSUNNY   21   5  49 NW5       30.33F WCI  15
$$

ABBREVIATIONS USED IN REMARKS
   TC - TEMPERATURES IN CELSIUS
  WCI - WIND CHILL INDEX
   HX - HEAT INDEX
  VSB - VISIBILITY
$$





USA.gov is the U.S. government's official web portal to all federal, state and local government web resources and services.